SCP
0 0 0 0 0 0 0 0 0 0 0 0 0 0 0 0 0 0 0 0 0 0 0 0 0 0 0 0 0 0 0 0 0 0 0 0 0 0 0 0 0 0 0
0 0 0 0 0 0 0 0 0 0 0 0 0 0 0 0 0 0 0 0 0 0 0 0 0 0 0 0 0 0 0 0 0 0 0 0 0 0 0 0 0 0 0
0 0 0 0 0 0 0 0 0 0 0 0 0 0 0 0 0 0 0 0 0 0 0 0 0 0 0 0 0 0 0 0 0 0 0 0 0 0 0 0 0 0 0
0 0 0 0 0 0 0 0 0 0 0 0 0 0 0 0 0 0 0 0 0 0 0 0 0 0 0 0 0 0 0 0 0 0 0 0 0 0 0 0 0 0 0
0 0 0 0 0 0 0 0 0 0 0 0 0 0 0 0 0 0 0 0 0 0 0 0 0 0 0 0 0 0 0 0 0 0 0 0 0 0 0 0 0 0 0
0 0 0 0 0 0 0 0 0 0 0 0 0 0 0 0 0 0 0 0 0 0 0 0 0 0 0 0 0 0 0 0 0 0 0 0 0 0 0 0 0 0 0
0 0 0 0 0 0 0 0 0 0 0 0 0 0 0 0 0 0 0 0 0 0 0 0 0 0 0 0 0 0 0 0 0 0 0 0 0 0 0 0 0 0 0
0 0 0 0 0 0 0 0 0 0 0 0 0 0 0 0 0 0 0 0 0 0 0 0 0 0 0 0 0 0 0 0 0 0 0 0 0 0 0 0 0 0 0
0 0 0 0 0 0 0 0 0 0 0 0 0 0 0 0 0 0 0 0 0 0 0 0 0 0 0 0 0 0 0 0 0 0 0 0 0 0 0 0 0 0 0
0 0 0 0 0 0 0 0 0 0 0 0 0 0 0 0 0 0 0 0 0 0 0 0 0 0 0 0 0 0 0 0 0 0 0 0 0 0 0 0 0 0 0
0 0 0 0 0 0 0 0 0 0 0 0 0 0 0 0 0 0 0 0 0 0 0 0 0 0 0 0 0 0 0 0 0 0 0 0 0 0 0 0 0 0 0
0 0 0 0 0 0 0 0 0 0 0 0 0 0 0 0 0 0 0 0 0 0 0 0 0 0 0 0 0 0 0 0 0 0 0 0 0 0 0 0 0 0 0
0 0 0 0 0 0 0 0 0 0 0 0 0 0 0 0 0 0 0 0 0 0 0 0 0 0 0 0 0 0 0 0 0 0 0 0 0 0 0 0 0 0 0
0 0 0 0 0 0 0 0 0 0 0 0 0 0 0 0 0 0 0 0 0 0 0 0 0 0 0 0 0 0 0 0 0 0 0 0 0 0 0 0 0 0 0
0 0 0 0 -0 -0 0 0 0 0 0 0 0 0 0 0 0 0 0 0 0 0 0 0 0 0 0 0 0 0 0 0 0 0 0 0 0 0 0 0 0 0 0
0 0 0 0 0 0 0 0 0 0 0 0 0 0 0 0 0 0 0 0 0 0 0 0 0 0 0 0 0 0 0 0 0 0 0 0 0 0 0 0 0 0 0
0 0 0 0 0 0 0 0 0 0 0 0 0 0 0 0 0 0 0 0 0 0 0 0 0 0 0 0 0 0 0 0 0 0 0 0 0 0 0 0 0 0 0
0 0 -0 0 0 0 0 0 0 0 0 0 0 0 0 0 0 0 0 0 0 0 0 0 0 0 0 0 0 0 0 0 0 0 0 0 0 0 0 0 0 0 0
0 0 0 -0 -0 0 -0 0 -0 0 0 0 0 0 0 0 0 0 0 0 0 0 0 0 0 0 0 0 0 0 0 0 0 0 0 0 0 0 0 0 0 0 0
0 0 0 0 0 0 0 0 0 0 0 0 0 0 0 0 0 0 0 0 0 0 0 0 0 0 0 0 0 0 0 0 0 0 0 0 0 0 0 0 0 0 0
0 0 0 0 0 0 0 0 0 0 0 0 0 0 0 0 0 0 0 0 0 0 0 0 0 0 0 0 0 0 0 0 0 0 0 0 0 0 0 0 0 0 0
0 0 0 0 0 0 0 0 0 0 0 0 0 0 0 0 0 0 0 0 0 0 0 0 0 0 0 0 0 0 0 0 0 0 0 0 0 0 0 0 0 0 0
0 0 0 0 0 0 0 0 0 0 0 0 0 0 0 0 0 0 0 0 0 0 0 0 0 0 0 0 0 0 0 0 0 0 0 0 0 0 0 0 0 0 0
0 0 0 0 0 0 0 0 0 0 0 0 0 0 0 0 0 0 0 0 0 0 0 0 0 0 0 0 0 0 0 0 0 0 0 0 0 0 0 0 0 0 0
0 0 0 0 0 0 0 0 0 0 0 0 0 0 0 0 0 0 0 0 0 0 0 0 0 0 0 0 0 0 0 0 0 0 0 0 0 0 0 0 0 0 0
0 0 0 0 0 0 0 0 0 0 0 0 0 0 0 0 0 0 0 0 0 0 0 0 0 0 0 0 0 0 0 0 0 0 0 0 0 0 0 0 0 0 0
Wind_Speed_500mb
44 45 46 48 48 46 42 39 34 33 34 35 37 37 37 35 34 33 32 32 30 31 31 33 33 28 29 34 32 25 20 21 25 28 30 34 32 31 33 35 35 39 44
42 43 48 49 48 45 43 40 36 36 38 40 41 42 42 42 41 39 36 35 34 33 33 34 35 28 25 35 33 23 21 22 25 27 30 28 28 28 30 33 32 33 34
36 35 40 41 38 35 39 34 36 39 41 44 45 47 48 48 47 45 44 41 39 37 36 37 37 30 30 33 28 31 27 25 25 26 26 28 26 27 29 27 28 30 31
30 31 31 31 29 31 33 33 36 42 43 45 46 46 51 53 52 50 50 47 45 43 41 41 41 38 36 37 34 32 35 26 27 28 28 27 26 28 27 27 28 29 28
26 27 30 31 32 33 35 38 41 45 45 45 48 49 52 55 56 56 57 55 53 49 47 46 47 44 42 46 41 37 41 32 30 31 32 31 29 30 28 28 29 29 29
23 23 26 28 30 34 36 40 41 41 44 45 49 54 57 59 59 61 62 62 60 56 54 52 52 51 51 54 46 44 42 42 34 34 35 34 33 31 31 31 31 31 30
19 21 22 24 30 35 36 37 40 40 44 45 51 57 62 64 66 66 66 67 66 64 61 60 57 56 58 59 58 54 43 44 43 38 36 36 36 35 34 33 33 33 33
15 18 18 20 24 27 30 34 36 40 43 43 46 52 48 56 57 55 58 64 67 71 70 68 66 64 63 64 64 64 58 50 49 49 41 39 38 38 38 37 37 36 35
13 13 16 19 22 26 26 28 31 35 42 42 39 32 22 14 45 33 19 31 43 59 70 73 72 71 70 71 70 71 67 64 62 56 55 45 42 41 40 40 41 40 38
22 19 19 20 23 27 32 34 34 37 39 44 43 42 47 56 58 52 54 46 40 45 45 54 68 76 77 78 78 76 74 71 70 66 66 55 50 46 45 45 44 42 41
27 27 28 27 25 27 31 38 42 44 44 50 52 49 49 52 57 68 92 75 70 73 72 71 69 65 71 82 85 84 82 79 77 74 74 67 59 54 51 50 49 47 45
30 31 32 33 33 34 35 37 40 44 48 52 54 61 59 56 62 61 73 88 96 99 92 86 82 82 83 80 81 87 88 85 83 82 80 74 67 63 58 55 54 52 50
44 45 45 47 46 46 45 46 46 47 47 50 54 61 66 68 63 66 70 83 91 101 102 100 93 90 86 81 82 83 87 90 89 88 88 82 76 72 66 62 59 57 55
50 52 53 54 54 53 54 55 56 55 55 54 56 57 65 70 70 71 73 74 81 86 103 107 95 87 88 91 89 84 83 87 92 93 96 90 85 79 73 69 65 62 59
52 57 61 66 67 67 65 64 65 66 64 63 63 61 62 65 66 69 74 75 77 74 87 102 96 88 80 78 85 94 96 90 88 95 100 99 94 87 82 77 72 68 65
56 59 60 63 66 69 72 76 78 76 75 72 70 69 68 67 65 64 67 72 76 84 93 83 97 95 87 81 77 82 88 92 87 90 101 103 101 94 88 84 78 74 72
76 77 76 78 79 80 78 79 80 82 83 84 83 80 78 72 72 69 67 68 75 79 96 105 95 99 98 96 93 87 90 93 91 86 91 102 104 101 94 89 86 80 77
86 92 96 99 99 97 94 92 93 91 91 92 91 89 92 87 83 77 73 73 74 75 83 102 95 94 98 96 94 92 91 94 99 93 88 92 104 105 102 97 92 86 83
94 99 102 102 103 102 103 101 101 101 97 96 95 97 98 96 98 92 84 80 78 79 80 86 99 89 91 93 90 92 93 93 99 103 100 91 91 104 109 104 98 91 88
95 97 98 100 102 104 104 101 95 97 98 99 100 98 97 98 100 97 94 90 83 81 82 85 91 87 85 86 83 88 92 95 101 98 103 103 97 99 110 110 106 100 96
96 98 102 105 108 110 110 105 92 81 80 85 92 99 102 101 96 97 93 96 89 83 79 75 75 73 73 78 90 90 96 98 99 99 98 102 105 102 112 114 114 109 102
100 104 107 111 114 112 108 98 81 86 96 107 105 93 87 89 95 100 88 77 77 75 75 71 74 75 79 73 75 83 87 88 98 101 99 103 103 110 112 118 121 117 109
104 107 108 107 105 100 91 78 67 72 82 89 92 95 92 84 84 90 88 84 80 80 80 81 87 86 84 80 72 78 84 89 94 85 71 86 94 109 111 114 121 119 114
104 105 103 97 94 90 81 75 68 72 77 83 85 89 94 95 95 76 88 94 99 104 109 96 94 107 99 92 82 86 90 94 91 86 85 94 90 102 95 106 113 119 117
101 100 95 93 89 86 77 72 66 70 76 78 79 78 78 81 86 83 82 85 91 104 97 87 95 92 92 91 79 77 85 87 87 87 87 90 84 81 92 99 104 115 118
97 94 93 87 81 80 71 66 58 63 73 77 78 79 75 69 70 71 84 100 109 105 92 93 95 98 97 100 94 88 88 88 97 74 94 88 89 78 70 92 98 100 106
Wind_Direction_500mb
261 273 279 286 291 294 294 285 280 275 272 268 266 267 269 272 273 274 275 277 279 282 282 284 290 290 284 294 306 305 293 277 266 264 261 263 269 271 268 262 256 255 250
267 274 281 286 288 293 293 283 279 277 276 273 269 268 268 269 270 270 271 273 274 274 273 271 277 281 257 283 296 296 293 285 279 274 270 272 274 271 266 267 270 270 268
273 284 284 286 289 294 297 283 284 285 284 281 278 274 271 271 271 272 272 271 271 271 270 270 269 272 244 271 278 295 295 289 281 278 281 277 272 267 267 268 266 265 266
275 278 283 293 296 297 295 291 293 294 291 285 282 280 276 273 271 269 268 268 269 269 270 269 266 268 242 248 262 281 290 287 282 281 282 280 276 274 274 273 270 269 266
268 277 282 289 291 287 289 291 294 295 293 289 287 281 278 275 272 268 267 267 266 265 265 265 266 266 258 257 274 280 284 284 279 281 281 278 275 273 273 271 269 268 269
272 274 281 285 284 286 288 291 292 295 293 295 292 287 282 279 276 270 267 264 262 262 261 261 260 259 257 264 271 271 270 280 279 279 278 276 274 272 270 270 268 267 266
279 284 282 283 284 284 285 287 291 289 288 292 300 292 288 283 278 274 273 270 268 267 264 261 259 257 254 256 264 265 255 264 278 277 271 270 271 270 269 268 267 265 264
287 281 281 284 284 286 294 295 289 292 289 291 292 300 305 295 287 282 276 273 273 268 265 264 262 259 257 258 259 263 262 256 267 277 274 267 266 265 265 266 265 264 264
340 314 297 293 292 288 289 287 291 293 293 288 289 283 299 288 308 307 294 290 286 275 265 261 261 259 258 258 257 260 261 260 263 265 274 270 265 263 262 262 262 262 262
8 350 329 313 305 301 300 300 296 291 288 290 289 283 279 282 288 299 288 287 274 277 281 282 273 265 259 258 257 259 260 259 260 261 266 270 266 262 261 260 260 260 260
357 351 345 339 327 317 307 301 297 295 295 291 287 284 281 281 280 280 288 291 285 281 279 276 276 277 272 264 261 259 258 258 256 257 259 264 263 260 260 258 258 257 258
343 340 337 334 330 323 315 309 306 300 295 289 287 286 280 276 278 277 280 283 286 286 285 278 274 270 269 271 271 266 261 258 256 256 257 260 258 258 259 256 255 256 255
336 336 333 330 329 328 324 319 316 312 306 297 289 285 282 278 276 274 275 278 281 283 284 282 278 273 268 266 265 269 267 261 257 255 254 256 255 253 255 254 253 253 253
330 325 323 321 320 319 317 314 311 309 307 307 304 297 287 281 280 279 276 277 280 279 281 281 283 278 274 268 264 263 264 265 259 254 253 253 253 251 252 251 251 252 252
321 318 316 314 312 311 311 309 307 306 303 301 300 298 295 292 285 279 278 276 274 273 275 279 281 281 280 275 269 262 259 262 264 258 253 253 252 250 250 250 249 249 250
326 321 317 313 309 307 307 306 304 302 300 298 296 295 292 293 291 286 282 278 274 271 271 271 275 278 277 273 269 265 261 259 259 259 252 251 252 250 248 250 249 247 248
323 320 317 313 309 306 302 299 296 295 294 293 292 291 289 289 288 287 285 281 277 273 271 275 273 275 274 273 271 266 262 258 256 256 255 251 250 250 247 247 248 246 246
316 315 313 310 307 305 301 296 293 291 291 289 286 285 285 286 284 283 282 281 281 279 276 278 278 275 274 273 271 270 265 261 258 253 254 255 250 248 245 244 246 246 245
309 308 306 305 305 304 304 303 303 300 294 288 284 282 281 279 280 281 281 279 278 279 279 279 280 278 275 273 271 268 265 263 259 256 252 253 254 250 247 244 243 244 243
305 304 304 303 302 301 299 298 300 300 300 297 294 287 280 277 277 277 278 278 278 277 277 277 278 278 277 275 269 266 264 261 261 257 254 252 253 248 247 245 243 242 241
308 306 305 303 301 299 298 297 290 280 284 290 290 290 289 286 281 276 278 277 278 277 274 273 271 273 270 267 266 267 262 265 263 260 257 253 251 247 242 243 243 241 240
310 309 308 307 305 303 300 298 294 286 280 268 270 278 283 281 278 281 278 270 269 270 269 267 267 266 266 265 266 265 265 257 257 257 255 253 251 249 246 242 242 240 237
312 311 311 309 308 307 307 305 300 291 283 277 273 275 277 277 277 273 272 271 265 260 258 264 266 263 265 262 263 265 261 256 256 256 256 256 252 252 250 248 245 243 239
314 314 313 313 313 312 313 308 303 297 290 288 287 279 273 277 268 282 273 268 270 274 271 268 264 263 262 262 261 261 262 263 263 254 253 252 254 254 253 251 249 246 242
316 315 317 317 313 313 314 310 303 298 296 295 295 294 292 286 274 271 273 273 270 270 271 269 262 259 263 264 259 257 258 251 243 242 241 243 244 250 250 249 249 245 242
315 316 316 313 313 313 316 315 305 302 301 301 299 299 299 293 290 282 272 272 271 271 273 272 271 263 258 257 256 251 246 249 242 245 244 236 237 236 236 246 245 243 238
Wind_Speed_850mb
44 45 46 48 48 46 42 39 34 33 34 35 37 37 37 35 34 33 32 32 30 31 31 33 33 28 29 34 32 25 20 21 25 28 30 34 32 31 33 35 35 39 44
42 43 48 49 48 45 43 40 36 36 38 40 41 42 42 42 41 39 36 35 34 33 33 34 35 28 25 35 33 23 21 22 25 27 30 28 28 28 30 33 32 33 34
36 35 40 41 38 35 39 34 36 39 41 44 45 47 48 48 47 45 44 41 39 37 36 37 37 30 30 33 28 31 27 25 25 26 26 28 26 27 29 27 28 30 31
30 31 31 31 29 31 33 33 36 42 43 45 46 46 51 53 52 50 50 47 45 43 41 41 41 38 36 37 34 32 35 26 27 28 28 27 26 28 27 27 28 29 28
26 27 30 31 32 33 35 38 41 45 45 45 48 49 52 55 56 56 57 55 53 49 47 46 47 44 42 46 41 37 41 32 30 31 32 31 29 30 28 28 29 29 29
23 23 26 28 30 34 36 40 41 41 44 45 49 54 57 59 59 61 62 62 60 56 54 52 52 51 51 54 46 44 42 42 34 34 35 34 33 31 31 31 31 31 30
19 21 22 24 30 35 36 37 40 40 44 45 51 57 62 64 66 66 66 67 66 64 61 60 57 56 58 59 58 54 43 44 43 38 36 36 36 35 34 33 33 33 33
15 18 18 20 24 27 30 34 36 40 43 43 46 52 48 56 57 55 58 64 67 71 70 68 66 64 63 64 64 64 58 50 49 49 41 39 38 38 38 37 37 36 35
13 13 16 19 22 26 26 28 31 35 42 42 39 32 22 14 45 33 19 31 43 59 70 73 72 71 70 71 70 71 67 64 62 56 55 45 42 41 40 40 41 40 38
22 19 19 20 23 27 32 34 34 37 39 44 43 42 47 56 58 52 54 46 40 45 45 54 68 76 77 78 78 76 74 71 70 66 66 55 50 46 45 45 44 42 41
27 27 28 27 25 27 31 38 42 44 44 50 52 49 49 52 57 68 92 75 70 73 72 71 69 65 71 82 85 84 82 79 77 74 74 67 59 54 51 50 49 47 45
30 31 32 33 33 34 35 37 40 44 48 52 54 61 59 56 62 61 73 88 96 99 92 86 82 82 83 80 81 87 88 85 83 82 80 74 67 63 58 55 54 52 50
44 45 45 47 46 46 45 46 46 47 47 50 54 61 66 68 63 66 70 83 91 101 102 100 93 90 86 81 82 83 87 90 89 88 88 82 76 72 66 62 59 57 55
50 52 53 54 54 53 54 55 56 55 55 54 56 57 65 70 70 71 73 74 81 86 103 107 95 87 88 91 89 84 83 87 92 93 96 90 85 79 73 69 65 62 59
52 57 61 66 67 67 65 64 65 66 64 63 63 61 62 65 66 69 74 75 77 74 87 102 96 88 80 78 85 94 96 90 88 95 100 99 94 87 82 77 72 68 65
56 59 60 63 66 69 72 76 78 76 75 72 70 69 68 67 65 64 67 72 76 84 93 83 97 95 87 81 77 82 88 92 87 90 101 103 101 94 88 84 78 74 72
76 77 76 78 79 80 78 79 80 82 83 84 83 80 78 72 72 69 67 68 75 79 96 105 95 99 98 96 93 87 90 93 91 86 91 102 104 101 94 89 86 80 77
86 92 96 99 99 97 94 92 93 91 91 92 91 89 92 87 83 77 73 73 74 75 83 102 95 94 98 96 94 92 91 94 99 93 88 92 104 105 102 97 92 86 83
94 99 102 102 103 102 103 101 101 101 97 96 95 97 98 96 98 92 84 80 78 79 80 86 99 89 91 93 90 92 93 93 99 103 100 91 91 104 109 104 98 91 88
95 97 98 100 102 104 104 101 95 97 98 99 100 98 97 98 100 97 94 90 83 81 82 85 91 87 85 86 83 88 92 95 101 98 103 103 97 99 110 110 106 100 96
96 98 102 105 108 110 110 105 92 81 80 85 92 99 102 101 96 97 93 96 89 83 79 75 75 73 73 78 90 90 96 98 99 99 98 102 105 102 112 114 114 109 102
100 104 107 111 114 112 108 98 81 86 96 107 105 93 87 89 95 100 88 77 77 75 75 71 74 75 79 73 75 83 87 88 98 101 99 103 103 110 112 118 121 117 109
104 107 108 107 105 100 91 78 67 72 82 89 92 95 92 84 84 90 88 84 80 80 80 81 87 86 84 80 72 78 84 89 94 85 71 86 94 109 111 114 121 119 114
104 105 103 97 94 90 81 75 68 72 77 83 85 89 94 95 95 76 88 94 99 104 109 96 94 107 99 92 82 86 90 94 91 86 85 94 90 102 95 106 113 119 117
101 100 95 93 89 86 77 72 66 70 76 78 79 78 78 81 86 83 82 85 91 104 97 87 95 92 92 91 79 77 85 87 87 87 87 90 84 81 92 99 104 115 118
97 94 93 87 81 80 71 66 58 63 73 77 78 79 75 69 70 71 84 100 109 105 92 93 95 98 97 100 94 88 88 88 97 74 94 88 89 78 70 92 98 100 106
Wind_Direction_850mb
261 273 279 286 291 294 294 285 280 275 272 268 266 267 269 272 273 274 275 277 279 282 282 284 290 290 284 294 306 305 293 277 266 264 261 263 269 271 268 262 256 255 250
267 274 281 286 288 293 293 283 279 277 276 273 269 268 268 269 270 270 271 273 274 274 273 271 277 281 257 283 296 296 293 285 279 274 270 272 274 271 266 267 270 270 268
273 284 284 286 289 294 297 283 284 285 284 281 278 274 271 271 271 272 272 271 271 271 270 270 269 272 244 271 278 295 295 289 281 278 281 277 272 267 267 268 266 265 266
275 278 283 293 296 297 295 291 293 294 291 285 282 280 276 273 271 269 268 268 269 269 270 269 266 268 242 248 262 281 290 287 282 281 282 280 276 274 274 273 270 269 266
268 277 282 289 291 287 289 291 294 295 293 289 287 281 278 275 272 268 267 267 266 265 265 265 266 266 258 257 274 280 284 284 279 281 281 278 275 273 273 271 269 268 269
272 274 281 285 284 286 288 291 292 295 293 295 292 287 282 279 276 270 267 264 262 262 261 261 260 259 257 264 271 271 270 280 279 279 278 276 274 272 270 270 268 267 266
279 284 282 283 284 284 285 287 291 289 288 292 300 292 288 283 278 274 273 270 268 267 264 261 259 257 254 256 264 265 255 264 278 277 271 270 271 270 269 268 267 265 264
287 281 281 284 284 286 294 295 289 292 289 291 292 300 305 295 287 282 276 273 273 268 265 264 262 259 257 258 259 263 262 256 267 277 274 267 266 265 265 266 265 264 264
340 314 297 293 292 288 289 287 291 293 293 288 289 283 299 288 308 307 294 290 286 275 265 261 261 259 258 258 257 260 261 260 263 265 274 270 265 263 262 262 262 262 262
8 350 329 313 305 301 300 300 296 291 288 290 289 283 279 282 288 299 288 287 274 277 281 282 273 265 259 258 257 259 260 259 260 261 266 270 266 262 261 260 260 260 260
357 351 345 339 327 317 307 301 297 295 295 291 287 284 281 281 280 280 288 291 285 281 279 276 276 277 272 264 261 259 258 258 256 257 259 264 263 260 260 258 258 257 258
343 340 337 334 330 323 315 309 306 300 295 289 287 286 280 276 278 277 280 283 286 286 285 278 274 270 269 271 271 266 261 258 256 256 257 260 258 258 259 256 255 256 255
336 336 333 330 329 328 324 319 316 312 306 297 289 285 282 278 276 274 275 278 281 283 284 282 278 273 268 266 265 269 267 261 257 255 254 256 255 253 255 254 253 253 253
330 325 323 321 320 319 317 314 311 309 307 307 304 297 287 281 280 279 276 277 280 279 281 281 283 278 274 268 264 263 264 265 259 254 253 253 253 251 252 251 251 252 252
321 318 316 314 312 311 311 309 307 306 303 301 300 298 295 292 285 279 278 276 274 273 275 279 281 281 280 275 269 262 259 262 264 258 253 253 252 250 250 250 249 249 250
326 321 317 313 309 307 307 306 304 302 300 298 296 295 292 293 291 286 282 278 274 271 271 271 275 278 277 273 269 265 261 259 259 259 252 251 252 250 248 250 249 247 248
323 320 317 313 309 306 302 299 296 295 294 293 292 291 289 289 288 287 285 281 277 273 271 275 273 275 274 273 271 266 262 258 256 256 255 251 250 250 247 247 248 246 246
316 315 313 310 307 305 301 296 293 291 291 289 286 285 285 286 284 283 282 281 281 279 276 278 278 275 274 273 271 270 265 261 258 253 254 255 250 248 245 244 246 246 245
309 308 306 305 305 304 304 303 303 300 294 288 284 282 281 279 280 281 281 279 278 279 279 279 280 278 275 273 271 268 265 263 259 256 252 253 254 250 247 244 243 244 243
305 304 304 303 302 301 299 298 300 300 300 297 294 287 280 277 277 277 278 278 278 277 277 277 278 278 277 275 269 266 264 261 261 257 254 252 253 248 247 245 243 242 241
308 306 305 303 301 299 298 297 290 280 284 290 290 290 289 286 281 276 278 277 278 277 274 273 271 273 270 267 266 267 262 265 263 260 257 253 251 247 242 243 243 241 240
310 309 308 307 305 303 300 298 294 286 280 268 270 278 283 281 278 281 278 270 269 270 269 267 267 266 266 265 266 265 265 257 257 257 255 253 251 249 246 242 242 240 237
312 311 311 309 308 307 307 305 300 291 283 277 273 275 277 277 277 273 272 271 265 260 258 264 266 263 265 262 263 265 261 256 256 256 256 256 252 252 250 248 245 243 239
314 314 313 313 313 312 313 308 303 297 290 288 287 279 273 277 268 282 273 268 270 274 271 268 264 263 262 262 261 261 262 263 263 254 253 252 254 254 253 251 249 246 242
316 315 317 317 313 313 314 310 303 298 296 295 295 294 292 286 274 271 273 273 270 270 271 269 262 259 263 264 259 257 258 251 243 242 241 243 244 250 250 249 249 245 242
315 316 316 313 313 313 316 315 305 302 301 301 299 299 299 293 290 282 272 272 271 271 273 272 271 263 258 257 256 251 246 249 242 245 244 236 237 236 236 246 245 243 238